Location: Mexico
(19.4000°N, 99.1500°W)
Time: 07:26:05
(UTC-06:00)

ISS - Pass Details

Date: 23 August 2019
Orbit: 410 x 420 km, 51.6° (Epoch: 21 August)

Event Time Altitude Azimuth Distance (km) Brightness Sun altitude
Rises 16:45:32 0° 281° (W) 2,355 1.2 30.5°
Enters shadow 17:08:46 -34° 151° (SSE) 7,839 2.3 25.0°
Exits shadow 17:42:53 -74° 17° (NNE) 12,671 3.5 17.0°
Maximum altitude 04:33:29 16° 124° (SE) 1,173 -1.2 -24.6°
